This is the latest recevied weather packets stored in our database for station/object W5MAI. If no packets are shown the sender has not sent any weather packets the latest 10 day(s).
| Time | Temp. | Humidity | Pressure | Rain* | Wind** | Luminosity | Snow |
|---|---|---|---|---|---|---|---|
| 1788641621 | 35° C | 45% | 1012.9 hPa | 0 mm | - | 830 W/m² | - |
| 1788641041 | 34.44° C | 46% | 1013.2 hPa | 0 mm | - | 833 W/m² | - |
| 1788640404 | 34.44° C | 48% | 1013.5 hPa | 0 mm | - | 174 W/m² | - |
| 1788639829 | 34.44° C | 46% | 1013.8 hPa | 0 mm | - | 904 W/m² | - |
| 1788639259 | 34.44° C | 50% | 1013.9 hPa | 0 mm | - | 904 W/m² | - |
| 1788638011 | 33.89° C | 50% | 1014.2 hPa | 0 mm | - | 874 W/m² | - |
| 1788637419 | 33.89° C | 51% | 1014.3 hPa | 0 mm | - | 810 W/m² | - |
| 1788636849 | 33.89° C | 52% | 1014.4 hPa | 0 mm | - | 882 W/m² | - |
| 1788636207 | 34.44° C | 51% | 1014.7 hPa | 0 mm | - | 946 W/m² | - |
| 1788635629 | 33.89° C | 52% | 1014.9 hPa | 0 mm | - | 954 W/m² | - |
| 1788635048 | 33.33° C | 54% | 1015.1 hPa | 0 mm | - | 921 W/m² | - |
| 1788634453 | 33.33° C | 57% | 1015.4 hPa | 0 mm | - | 962 W/m² | - |
| 1788633805 | 32.78° C | 56% | 1015.5 hPa | 0 mm | - | 977 W/m² | - |
| 1788632617 | 32.78° C | 56% | 1015.7 hPa | 0 mm | - | 417 W/m² | - |
| 1788632023 | 32.78° C | 56% | 1016.1 hPa | 0 mm | - | 213 W/m² | - |
| 1788631452 | 32.78° C | 54% | 1016.2 hPa | 0 mm | - | 951 W/m² | - |
| 1788630812 | 31.67° C | 58% | 1016.3 hPa | 0 mm | - | 1107 W/m² | - |
| 1788630238 | 31.67° C | 60% | 1016.5 hPa | 0 mm | - | 1037 W/m² | - |
| 1788629644 | 31.67° C | 61% | 1016.6 hPa | 0 mm | - | 636 W/m² | - |
| 1788629060 | 31.11° C | 63% | 1016.6 hPa | 0 mm | - | 707 W/m² | - |
| 1788628414 | 31.11° C | 65% | 1016.7 hPa | 0 mm | - | 821 W/m² | - |
| 1788627820 | 30.56° C | 68% | 1016.7 hPa | 0 mm | - | 494 W/m² | - |
| 1788627256 | 30.56° C | 67% | 1016.9 hPa | 0 mm | - | 432 W/m² | - |
| 1788626619 | 30° C | 69% | 1016.9 hPa | 0 mm | - | 396 W/m² | - |
| 1788626040 | 30.56° C | 69% | 1016.9 hPa | 0 mm | - | 387 W/m² | - |
* Rain latest hour (hover to see other rain measurements)
** Current wind speed in m/s (hover to see current wind gust speed)